Weather History for Salida, CO

Change the Weather History Date:

Thursday, September 12, 2013

  Actual Average (KGUC) Record (KGUC)
Temperature  
Mean Temperature 64 °F -  
Max Temperature 70 °F 67 °F 77 °F (2001)
Min Temperature 57 °F 35 °F 30 °F (2000)
Degree Days  
Heating Degree Days 2    
Growing Degree Days 14 (Base 50)    
Moisture  
Dew Point 56 °F    
Average Humidity 85    
Maximum Humidity 96    
Minimum Humidity 56    
Precipitation  
Precipitation 0.00 in - - ()
Sea Level Pressure  
Sea Level Pressure 30.41 in    
Wind  
Wind Speed 3 mph (ESE)    
Max Wind Speed 17 mph    
Max Gust Speed 29 mph    
Visibility 10 miles    
Events      
Averages and records for this station are not official NWS values.
T = Trace of Precipitation, MM = Missing Value Source: NWS Daily Summary

Daily Weather History Graph

Daily Weather History Graph

Search for Another Location

Airport:

Trip Planner

Search our weather history database for the weather conditions in past years. The results will help you decide how hot, cold, wet, or windy it might be!

Date:

Astronomy

Sep. 12, 2013 Rise Set
Actual Time 6:43 AM MDT 7:16 PM MDT
Civil Twilight 6:16 AM MDT 7:43 PM MDT
Nautical Twilight 5:45 AM MDT 8:14 PM MDT
Astronomical Twilight 5:12 AM MDT 8:46 PM MDT
Moon 2:08 PM MDT (9/12) No Moon Set
Length of Visible Light 13h 26m
Length of Day
12h 33m
Waxing Crescent, 51% of the Moon is Illuminated
Sep 12
Waxing Crescent
Sep 19
Full
Sep 26
Last Quarter
Oct 4
New
Oct 11
First Quarter

Hourly Weather History & Observations

Time (MDT) Temp. Dew Point Humidity Pressure Visibility Wind Dir Wind Speed Gust Speed Precip Events Conditions
12:15 AM 58.1 °F 55.9 °F 93% 30.43 in 10.0 mi SSW 3.5 mph - N/A   Mostly Cloudy
12:35 AM 58.5 °F 55.9 °F 91% 30.42 in 10.0 mi Calm Calm - N/A   Mostly Cloudy
12:55 AM 59.0 °F 55.8 °F 89% 30.42 in 10.0 mi Calm Calm - N/A   Overcast
1:15 AM 58.5 °F 55.8 °F 91% 30.42 in 10.0 mi Calm Calm - N/A   Overcast
1:35 AM 58.3 °F 56.1 °F 93% 30.43 in 10.0 mi Calm Calm - N/A   Overcast
1:55 AM 58.1 °F 56.1 °F 93% 30.43 in 10.0 mi Calm Calm - N/A   Overcast
2:15 AM 58.1 °F 55.8 °F 92% 30.42 in 10.0 mi Calm Calm - N/A   Overcast
2:35 AM 58.3 °F 55.6 °F 91% 30.42 in 10.0 mi Calm Calm - N/A   Overcast
2:55 AM 58.5 °F 55.4 °F 90% 30.43 in 10.0 mi South 3.5 mph - N/A   Overcast
3:15 AM 58.1 °F 56.3 °F 94% 30.42 in 4.0 mi Calm Calm - N/A   Overcast
3:35 AM 58.1 °F 56.5 °F 94% 30.43 in 10.0 mi Calm Calm - N/A   Overcast
3:55 AM 58.3 °F 56.8 °F 95% 30.42 in 10.0 mi Calm Calm - N/A   Overcast
4:15 AM 58.1 °F 56.8 °F 96% 30.42 in 10.0 mi Calm Calm - N/A   Overcast
4:35 AM 58.1 °F 56.7 °F 95% 30.43 in 10.0 mi Calm Calm - N/A   Overcast
4:55 AM 58.1 °F 56.8 °F 96% 30.43 in 10.0 mi Calm Calm - N/A   Overcast
5:15 AM 58.1 °F 57.0 °F 96% 30.43 in 10.0 mi Calm Calm - N/A   Overcast
5:35 AM 58.1 °F 57.0 °F 96% 30.43 in 7.0 mi Calm Calm - N/A   Overcast
5:55 AM 57.7 °F 56.7 °F 96% 30.43 in 10.0 mi Calm Calm - N/A   Overcast
6:15 AM 57.9 °F 56.7 °F 96% 30.43 in 10.0 mi Calm Calm - N/A   Overcast
6:35 AM 57.9 °F 56.3 °F 94% 30.44 in 10.0 mi North 3.5 mph - N/A   Overcast
6:55 AM 58.1 °F 56.5 °F 94% 30.44 in 10.0 mi Calm Calm - N/A   Overcast
7:15 AM 58.1 °F 56.3 °F 94% 30.45 in 10.0 mi Calm Calm - N/A   Overcast
7:35 AM 58.1 °F 56.5 °F 94% 30.45 in 7.0 mi Calm Calm - N/A   Overcast
7:55 AM 58.1 °F 56.5 °F 94% 30.46 in 10.0 mi Calm Calm - N/A   Overcast
8:35 AM 58.8 °F 56.7 °F 93% 30.45 in 10.0 mi NNW 3.5 mph - N/A   Overcast
8:55 AM 59.9 °F 56.3 °F 88% 30.46 in 10.0 mi Calm Calm - N/A   Overcast
9:15 AM 60.1 °F 56.7 °F 88% 30.47 in 10.0 mi North 3.5 mph - N/A   Overcast
9:35 AM 60.4 °F 55.8 °F 85% 30.47 in 10.0 mi WNW 3.5 mph - N/A   Overcast
9:55 AM 61.5 °F 56.3 °F 83% 30.47 in 10.0 mi Calm Calm - N/A   Overcast
10:15 AM 61.9 °F 56.1 °F 81% 30.47 in 10.0 mi Calm Calm - N/A   Overcast
10:35 AM 62.1 °F 55.9 °F 80% 30.47 in 7.0 mi Calm Calm - N/A   Overcast
10:55 AM 62.2 °F 56.3 °F 81% 30.47 in 10.0 mi Calm Calm - N/A   Overcast
11:15 AM 62.6 °F 55.9 °F 79% 30.46 in 10.0 mi Calm Calm - N/A   Overcast
11:35 AM 63.5 °F 55.9 °F 76% 30.46 in 10.0 mi NNW 4.6 mph - N/A   Overcast
11:55 AM 64.6 °F 55.2 °F 72% 30.45 in 10.0 mi Calm Calm - N/A   Overcast
12:15 PM 68.7 °F 53.1 °F 57% 30.45 in 10.0 mi ESE 9.2 mph - N/A   Mostly Cloudy
12:35 PM 69.4 °F 53.6 °F 57% 30.44 in 10.0 mi SE 9.2 mph - N/A   Mostly Cloudy
12:55 PM 70.0 °F 53.8 °F 56% 30.43 in 10.0 mi East 11.5 mph 18.4 mph N/A   Scattered Clouds
1:15 PM 70.9 °F 55.0 °F 57% 30.42 in 10.0 mi ESE 10.4 mph 16.1 mph N/A   Clear
1:35 PM 69.1 °F 54.0 °F 58% 30.41 in 10.0 mi ESE 13.8 mph 20.7 mph N/A   Clear
1:55 PM 68.0 °F 53.1 °F 59% 30.40 in 10.0 mi ESE 13.8 mph 20.7 mph N/A   Clear
2:15 PM 68.9 °F 54.9 °F 61% 30.39 in 10.0 mi ESE 11.5 mph 17.3 mph N/A   Clear
2:35 PM 67.8 °F 54.7 °F 63% 30.39 in 10.0 mi East 8.1 mph - N/A   Mostly Cloudy
2:55 PM 68.0 °F 53.1 °F 59% 30.38 in 10.0 mi East 16.1 mph 20.7 mph N/A   Overcast
3:15 PM 65.8 °F 52.9 °F 63% 30.38 in 10.0 mi East 17.3 mph 28.8 mph N/A   Overcast
3:35 PM 64.4 °F 54.7 °F 71% 30.39 in 10.0 mi East 12.7 mph 20.7 mph N/A   Overcast
3:55 PM 64.6 °F 54.1 °F 69% 30.37 in 10.0 mi ESE 16.1 mph 21.9 mph N/A   Overcast
4:15 PM 63.5 °F 54.0 °F 71% 30.37 in 10.0 mi East 12.7 mph 21.9 mph N/A   Overcast
4:35 PM 63.3 °F 54.5 °F 73% 30.37 in 10.0 mi East 15.0 mph 21.9 mph N/A   Overcast
4:55 PM 62.1 °F 54.9 °F 77% 30.37 in 10.0 mi East 10.4 mph 20.7 mph N/A   Overcast
5:15 PM 60.4 °F 55.4 °F 83% 30.37 in 10.0 mi SE 8.1 mph - N/A   Overcast
5:35 PM 59.5 °F 55.4 °F 86% 30.38 in 10.0 mi ESE 8.1 mph - N/A   Overcast
5:55 PM 59.2 °F 55.6 °F 88% 30.38 in 10.0 mi ESE 8.1 mph - N/A   Overcast
6:15 PM 59.2 °F 55.8 °F 88% 30.38 in 10.0 mi ESE 6.9 mph - N/A   Overcast
6:35 PM 59.0 °F 56.3 °F 91% 30.39 in 10.0 mi East 4.6 mph - N/A   Overcast
6:55 PM 59.0 °F 56.3 °F 91% 30.39 in 10.0 mi ESE 4.6 mph - N/A   Mostly Cloudy
7:15 PM 59.0 °F 55.9 °F 90% 30.38 in 10.0 mi Calm Calm - N/A   Mostly Cloudy
7:35 PM 58.8 °F 55.9 °F 90% 30.38 in 10.0 mi Calm Calm - N/A   Overcast
7:55 PM 58.6 °F 56.5 °F 93% 30.38 in 10.0 mi SSE 3.5 mph - N/A   Overcast
8:15 PM 58.5 °F 56.3 °F 93% 30.39 in 10.0 mi SE 3.5 mph - N/A   Overcast
8:35 PM 58.6 °F 56.3 °F 92% 30.39 in 10.0 mi Calm Calm - N/A   Overcast
8:55 PM 58.8 °F 56.1 °F 91% 30.39 in 10.0 mi Calm Calm - N/A   Overcast
9:15 PM 58.6 °F 55.6 °F 90% 30.39 in 10.0 mi Calm Calm - N/A   Overcast
9:35 PM 59.0 °F 56.3 °F 91% 30.39 in 10.0 mi Calm Calm - N/A   Overcast
9:55 PM 58.8 °F 55.8 °F 90% 30.38 in 10.0 mi Calm Calm - N/A   Overcast
10:15 PM 58.6 °F 56.3 °F 92% 30.38 in 10.0 mi Calm Calm - N/A   Overcast
10:35 PM 58.6 °F 56.1 °F 91% 30.37 in 10.0 mi Calm Calm - N/A   Overcast
10:55 PM 58.1 °F 56.7 °F 95% 30.37 in 10.0 mi Calm Calm - N/A   Overcast
11:15 PM 58.1 °F 56.7 °F 95% 30.37 in 10.0 mi Calm Calm - N/A   Overcast
11:35 PM 58.1 °F 56.5 °F 94% 30.37 in 10.0 mi Calm Calm - N/A   Overcast
11:55 PM 57.9 °F 56.5 °F 95% 30.37 in 10.0 mi Calm Calm - N/A   Overcast